Orbital elements of H-2 R/B
| Launched | 16 August 1996 |
| Flight ended | – |
| Launch site | Tanegashima Space Center, Japan |
| Owner | Japan |
| NORAD ID | 24279 |
| Date fetched |
Epoch osculation |
Inc. [°] |
Ecc. | RA asc node [hr] |
Arg Peri. [°] |
Mean anom [°] |
Mean motion [rev/day] |
Abs. mag |
| Date fetched |
Epoch osculation |
Inc. [°] |
Ecc. | RA asc node [hr] |
Arg Peri. [°] |
Mean anom [°] |
Mean motion [rev/day] |
Abs. mag |
| 2026 May 06 17:57 | 2026 May 05 11:04:12 | 98.7568 | 0.02983 | 4.5811 | 293.2200 | 175.9289 | 13.47480 | 3.743 |
| 2026 May 05 17:57 | 2026 May 05 11:04:12 | 98.7568 | 0.02983 | 4.5811 | 293.2200 | 175.9289 | 13.47480 | 3.743 |
| 2026 May 04 17:57 | 2026 Apr 30 15:34:01 | 98.7564 | 0.02985 | 4.2996 | 305.5314 | 175.9289 | 13.47480 | 3.743 |
| 2026 May 03 17:57 | 2026 Apr 30 15:34:01 | 98.7564 | 0.02985 | 4.2996 | 305.5314 | 175.9289 | 13.47480 | 3.743 |
| 2026 May 02 17:57 | 2026 Apr 30 15:34:01 | 98.7564 | 0.02985 | 4.2996 | 305.5314 | 175.9289 | 13.47480 | 3.743 |
| 2026 May 01 17:56 | 2026 Apr 30 15:34:01 | 98.7564 | 0.02985 | 4.2996 | 305.5314 | 175.9289 | 13.47480 | 3.743 |
| 2026 Apr 30 17:56 | 2026 Apr 30 15:34:01 | 98.7564 | 0.02985 | 4.2996 | 305.5314 | 175.9289 | 13.47480 | 3.743 |
| 2026 Apr 29 17:57 | 2026 Apr 24 11:19:27 | 98.7556 | 0.02987 | 3.9383 | 321.3222 | 175.9289 | 13.47480 | 3.743 |
| 2026 Apr 28 17:56 | 2026 Apr 24 11:19:27 | 98.7556 | 0.02987 | 3.9383 | 321.3222 | 175.9289 | 13.47480 | 3.743 |
| 2026 Apr 27 17:58 | 2026 Apr 24 11:19:27 | 98.7556 | 0.02987 | 3.9383 | 321.3222 | 175.9289 | 13.47480 | 3.743 |
| 2026 Apr 26 17:58 | 2026 Apr 24 11:19:27 | 98.7556 | 0.02987 | 3.9383 | 321.3222 | 175.9289 | 13.47480 | 3.743 |
| 2026 Apr 25 17:58 | 2026 Apr 24 11:19:27 | 98.7556 | 0.02987 | 3.9383 | 321.3222 | 175.9289 | 13.47480 | 3.743 |
| 2026 Apr 24 17:59 | 2026 Apr 24 11:19:27 | 98.7556 | 0.02987 | 3.9383 | 321.3222 | 175.9289 | 13.47480 | 3.743 |
| 2026 Apr 23 17:57 | 2026 Apr 19 11:57:08 | 98.7552 | 0.02990 | 3.6474 | 334.0229 | 175.9289 | 13.47480 | 3.743 |
| 2026 Apr 22 17:57 | 2026 Apr 19 11:57:08 | 98.7552 | 0.02990 | 3.6474 | 334.0229 | 175.9289 | 13.47480 | 3.743 |
| 2026 Apr 21 17:57 | 2026 Apr 19 11:57:08 | 98.7552 | 0.02990 | 3.6474 | 334.0229 | 175.9289 | 13.47480 | 3.743 |
| 2026 Apr 20 17:57 | 2026 Apr 19 11:57:08 | 98.7552 | 0.02990 | 3.6474 | 334.0229 | 175.9289 | 13.47480 | 3.743 |
| 2026 Apr 19 17:58 | 2026 Apr 19 11:57:08 | 98.7552 | 0.02990 | 3.6474 | 334.0229 | 175.9289 | 13.47480 | 3.743 |
| 2026 Apr 18 17:56 | 2026 Apr 13 06:34:17 | 98.7543 | 0.02993 | 3.2835 | 349.9071 | 175.9289 | 13.47480 | 3.743 |
| 2026 Apr 16 17:57 | 2026 Apr 13 06:34:17 | 98.7543 | 0.02993 | 3.2835 | 349.9071 | 175.9289 | 13.47480 | 3.743 |
| 2026 Apr 14 17:57 | 2026 Apr 13 06:34:17 | 98.7543 | 0.02993 | 3.2835 | 349.9071 | 175.9289 | 13.47480 | 3.743 |
| 2026 Apr 13 17:57 | 2026 Apr 13 06:34:17 | 98.7543 | 0.02993 | 3.2835 | 349.9071 | 175.9289 | 13.47480 | 3.743 |
| 2026 Apr 12 17:57 | 2026 Apr 08 14:17:18 | 98.7536 | 0.02995 | 3.0099 | 1.8250 | 175.9289 | 13.47480 | 3.743 |
| 2026 Apr 11 17:57 | 2026 Apr 08 14:17:18 | 98.7536 | 0.02995 | 3.0099 | 1.8250 | 175.9289 | 13.47480 | 3.743 |
| 2026 Apr 10 17:58 | 2026 Apr 08 14:17:18 | 98.7536 | 0.02995 | 3.0099 | 1.8250 | 175.9289 | 13.47480 | 3.743 |
| 2026 Apr 09 18:01 | 2026 Apr 08 14:17:18 | 98.7536 | 0.02995 | 3.0099 | 1.8250 | 175.9289 | 13.47480 | 3.743 |